Weather History for KOXB - October, 2012

Change the Weather History Date:

Monday, October 15, 2012

  Actual Average (KSBY) Record (KSBY)
Temperature  
Mean Temperature 65 °F 57 °F  
Max Temperature 75 °F 69 °F 85 °F (1975)
Min Temperature 57 °F 46 °F 29 °F (2006)
Degree Days  
Heating Degree Days 0 8  
Month to date heating degree days 97  
Since 1 July heating degree days 145  
Cooling Degree Days 0 1  
Month to date cooling degree days 19  
Year to date cooling degree days 1144  
Growing Degree Days 15 (Base 50)    
Moisture  
Dew Point 60 °F    
Average Humidity 86    
Maximum Humidity 100    
Minimum Humidity 62    
Precipitation  
Precipitation 0.00 in 0.11 in 1.20 in (1970)
Month to date precipitation 1.71  
Year to date precipitation 36.76  
Snow  
Snow 0.00 in 0.00 in 0.00 in (2002)
Month to date snowfall 0.0  
Since 1 July snowfall 0.0  
Snow Depth -    
Sea Level Pressure  
Sea Level Pressure 29.80 in    
Wind  
Wind Speed 10 mph (WSW)    
Max Wind Speed 16 mph    
Max Gust Speed 26 mph    
Visibility 8 miles    
Events Rain    
T = Trace of Precipitation, MM = Missing Value Source: NWS Daily Summary

Daily Weather History Graph

Daily Weather History Graph

Search for Another Location

Airport or City:

Trip Planner

Search our weather history database for the weather conditions in past years. The results will help you decide how hot, cold, wet, or windy it might be!

Date:

Astronomy

Oct. 15, 2012 Rise Set
Actual Time 7:09 AM EDT 6:21 PM EDT
Civil Twilight 6:43 AM EDT 6:48 PM EDT
Nautical Twilight 6:12 AM EDT 7:19 PM EDT
Astronomical Twilight 5:41 AM EDT 7:49 PM EDT
Moon 7:16 AM EDT (10/15) 6:20 PM EDT (10/15)
Length of Visible Light 12h 05m
Length of Day
11h 12m
New Moon, 0% of the Moon is Illuminated
Oct 15
New Moon
Oct 21
First Quarter
Oct 29
Full
Nov 6
Last Quarter
Nov 13
New

Hourly Weather History & Observations

Time (EDT) Temp. Dew Point Humidity Pressure Visibility Wind Dir Wind Speed Gust Speed Precip Events Conditions
12:53 AM 64.9 °F 62.1 °F 90% 29.99 in 10.0 mi SW 11.5 mph 19.6 mph N/A   Clear
1:53 AM 66.0 °F 62.1 °F 87% 29.97 in 10.0 mi SW 13.8 mph - N/A   Clear
2:53 AM 64.9 °F 62.1 °F 90% 29.96 in 10.0 mi SW 10.4 mph 16.1 mph N/A   Clear
3:53 AM 64.9 °F 61.0 °F 87% 29.93 in 10.0 mi SW 11.5 mph 17.3 mph N/A   Scattered Clouds
4:53 AM 64.0 °F 60.1 °F 87% 29.91 in 10.0 mi SW 9.2 mph - N/A   Clear
5:53 AM 64.9 °F 59.0 °F 81% 29.90 in 10.0 mi SW 11.5 mph - N/A   Clear
6:53 AM 64.0 °F 59.0 °F 84% 29.89 in 10.0 mi SW 8.1 mph 17.3 mph N/A   Clear
7:53 AM 64.0 °F 60.1 °F 87% 29.88 in 10.0 mi SW 9.2 mph - N/A   Clear
8:53 AM 66.0 °F 60.1 °F 81% 29.88 in 10.0 mi SW 9.2 mph - N/A   Clear
9:53 AM 66.9 °F 61.0 °F 81% 29.87 in 10.0 mi SW 12.7 mph 18.4 mph N/A   Clear
10:53 AM 68.0 °F 61.0 °F 78% 29.85 in 10.0 mi SW 10.4 mph - N/A   Clear
11:53 AM 70.0 °F 62.1 °F 76% 29.82 in 10.0 mi SSW 12.7 mph 19.6 mph N/A   Clear
12:53 PM 73.9 °F 62.1 °F 66% 29.80 in 10.0 mi SSW 8.1 mph 18.4 mph N/A   Partly Cloudy
1:53 PM 73.0 °F 63.0 °F 71% 29.75 in 10.0 mi SSW 8.1 mph - N/A   Clear
2:53 PM 73.9 °F 60.1 °F 62% 29.74 in 10.0 mi West 16.1 mph 25.3 mph N/A   Mostly Cloudy
3:53 PM 70.0 °F 60.1 °F 71% 29.73 in 10.0 mi West 5.8 mph - 0.00 in Rain Light Rain
4:53 PM 69.1 °F 59.0 °F 70% 29.72 in 10.0 mi WSW 6.9 mph - 0.00 in   Overcast
5:53 PM 66.9 °F 57.9 °F 73% 29.71 in 10.0 mi West 6.9 mph - N/A   Partly Cloudy
6:53 PM 64.9 °F 60.1 °F 84% 29.69 in 10.0 mi West 4.6 mph - 0.00 in   Overcast
7:45 PM 62.6 °F 60.8 °F 94% 29.71 in 2.0 mi WSW 10.4 mph - 0.00 in Rain Rain
7:53 PM 63.0 °F 61.0 °F 93% 29.72 in 3.0 mi SW 9.2 mph - N/A Rain Rain
8:53 PM 63.0 °F 62.1 °F 97% 29.71 in 3.0 mi SW 3.5 mph - N/A Rain Rain
9:17 PM 62.6 °F 62.6 °F 100% 29.71 in 6.0 mi SW 5.8 mph - N/A Rain Light Rain
9:42 PM 62.6 °F 62.6 °F 100% 29.71 in 2.5 mi SSW 3.5 mph - N/A Rain Rain
9:51 PM 62.6 °F 62.6 °F 100% 29.72 in 3.0 mi WSW 8.1 mph - N/A Rain Rain
9:53 PM 63.0 °F 62.1 °F 97% 29.72 in 4.0 mi SW 6.9 mph - N/A Rain Light Rain
10:10 PM 60.8 °F 60.8 °F 100% 29.77 in 3.0 mi NW 16.1 mph 26.5 mph N/A Rain Rain
10:12 PM 59.0 °F 57.2 °F 94% 29.76 in 2.5 mi NW 10.4 mph 26.5 mph N/A Rain Heavy Rain
10:33 PM 57.2 °F 55.4 °F 94% 29.73 in 5.0 mi North 10.4 mph - N/A Rain Light Rain
10:53 PM 57.0 °F 55.9 °F 96% 29.75 in 10.0 mi NW 4.6 mph - N/A   Overcast
11:53 PM 57.9 °F 57.0 °F 97% 29.75 in 7.0 mi Calm Calm - N/A   Overcast